#timestamp,LO_Frequency,Hit,StdDev 
1540915215.1,286046996.5,N
1540915216.0,286046996.5,N
1540915235.8,286046998.4,N
1540915255.6,286046999.3,N
1540915275.5,286046999.1,N
1540915295.3,286046999.5,N
1540915315.1,286046996.9,N
1540915335.9,286046996.7,N
1540915355.7,286046999.0,N
1540915375.6,286046999.1,N
1540915395.4,286046999.1,N
1540915415.2,286046998.8,N
1540915435.1,286046996.5,N
1540915436.0,286046996.5,N
1540915455.8,286046999.2,N
1540915475.6,286046999.4,N
1540915495.5,286046998.7,N
1540915515.3,286047001.2,N
1540915535.2,286046998.3,N
1540915555.9,286046999.0,N
1540915575.7,286046999.0,N
1540915595.6,286046999.0,N
1540915615.4,286046999.0,N
1540915635.2,286046998.5,N
1540915655.1,286046998.6,N
1540915656.0,286046998.6,N
1540915675.8,286046998.3,N
1540915695.7,286046998.8,N
1540915715.5,286046998.8,N
1540915735.3,286047001.0,N
1540915755.2,286046999.6,N
1540915775.9,286046999.0,N
1540915795.7,286047001.1,N
1540915815.6,286046997.0,N
1540915835.4,286046996.6,N
1540915855.3,286046997.7,N
1540915875.1,286046999.1,N
1540915876.0,286046999.1,N
1540915895.8,286046996.5,Y
1540915915.7,286047000.6,P
1540915935.5,286047000.2,N
1540915955.3,286047000.4,N
1540915975.2,286046998.7,N
1540915995.0,286046999.2,N
1540915995.9,286046999.2,N
1540916015.8,286046996.7,Y
1540916035.6,286046999.6,P
1540916055.4,286046996.7,P
1540916075.3,286046999.0,N
1540916125.1,286046997.1,E
1540916135.0,286046996.5,N
1540916136.0,286046996.5,P
1540916155.8,286046998.9,P
1540916175.6,286046997.4,N
1540916195.5,286046996.7,Y
1540916215.3,286046999.9,P
1540916235.1,286047002.4,N
1540916255.9,286047002.3,N
1540916275.7,286047000.0,N
1540916295.6,286047002.4,N
1540916315.4,286047004.4,N
1540916335.2,286047004.2,N
1540916355.1,286047001.7,N
1540916356.0,286047001.7,N
1540916375.8,286047002.2,N
1540916395.6,286047000.7,N
1540916415.5,286047001.0,N
1540916435.3,286047000.7,N
1540916455.2,286047000.3,N
1540916475.9,286047000.9,N
1540916495.7,286047000.6,N
1540916515.6,286047002.8,N
1540916535.4,286047002.8,N
1540916555.2,286046999.9,N
1540916575.1,286047000.5,N
1540916576.0,286047000.5,N
1540916595.8,286047002.8,N
1540916615.7,286047000.6,N
1540916635.5,286047000.5,N
1540916655.3,286047002.8,N
1540916675.1,286047000.4,N
1540916676.0,286047000.4,N
1540916695.8,286047000.0,N
1540916715.6,286047000.1,N
1540916735.5,286047000.2,N
1540916755.3,286046999.9,N
1540916775.1,286047002.4,N
1540916795.9,286046999.8,N
1540916815.7,286047001.0,N
1540916835.6,286047001.2,N
1540916855.4,286047000.0,N
1540916875.2,286047002.3,N
1540916895.1,286047000.9,N
1540916896.0,286047000.9,N
1540916915.8,286046998.7,N
1540916935.7,286046995.3,Y
1540916955.5,286046993.4,P
1540916975.3,286046993.8,N
1540916995.2,286046994.2,N
1540917015.0,286046996.3,N
1540917015.9,286046996.3,N
1540917035.7,286046995.3,N
1540917055.6,286046997.9,N
1540917075.4,286046995.7,N
1540917095.3,286046997.9,N
1540917115.1,286046996.9,N
1540917116.0,286046996.9,N
1540917135.8,286046996.6,N
1540917155.7,286046997.3,N
1540917175.5,286046998.0,N
1540917195.3,286046995.6,N
1540917215.2,286046995.6,N
1540917235.0,286046995.2,N
1540917235.9,286046995.2,N
1540917255.8,286046996.7,N
1540917275.6,286046999.0,N
1540917295.4,286046998.8,N
1540917315.3,286047001.2,N
1540917335.1,286046998.1,N
1540917355.9,286046998.7,N
1540917375.7,286046999.3,N
1540917395.5,286046996.5,N
1540917415.4,286046997.7,N
1540917435.2,286046997.9,N
1540917455.0,286046995.4,N
1540917456.0,286046995.4,N
1540917475.8,286046995.9,N
1540917495.6,286046996.3,N
1540917515.5,286046996.4,N
1540917535.3,286046995.7,Y
1540917555.1,286046998.8,P
1540917575.9,286046999.6,N
1540917595.7,286046997.7,N
1540917615.6,286046997.9,N
1540917635.4,286046997.5,N
1540917655.2,286046997.2,Y
1540917675.1,286047000.0,P
1540917676.0,286047000.0,N
1540917695.8,286047000.4,N
1540917715.7,286047000.7,N
1540917735.5,286046999.7,N
1540917755.3,286047000.4,N
1540917775.2,286046998.1,N
1540917795.9,286046998.4,N
1540917815.7,286046998.7,N
1540917835.6,286046996.5,Y
1540917855.4,286046999.6,P
1540917875.3,286046997.4,P
1540917895.1,286046999.2,N
1540917896.0,286046999.2,N
1540917915.8,286046999.6,N
1540917935.7,286046996.8,Y
1540917955.5,286046996.6,P
1540917975.3,286046996.5,N
1540917995.2,286046999.6,N
1540918015.0,286046999.0,N
1540918015.9,286046999.0,N
1540918035.8,286046999.3,N
1540918055.6,286046999.0,N
1540918075.4,286046998.3,N
1540918095.3,286047001.1,N
1540918115.1,286047001.1,N
1540918135.8,286047000.9,N
1540918155.7,286047002.1,N
1540918175.5,286047002.7,N
1540918195.4,286047000.0,N
1540918215.2,286047002.7,N
1540918235.0,286046999.8,N
1540918235.9,286046999.8,N
1540918255.8,286046999.8,N
1540918275.6,286047000.0,N
1540918295.4,286047001.1,N
1540918315.3,286047000.6,N
1540918335.1,286047000.6,N
1540918355.9,286046999.7,N
1540918375.7,286047002.3,N
1540918395.5,286047002.7,N
1540918415.4,286047001.6,N
1540918435.2,286047001.8,N
1540918455.0,286047001.3,N
1540918455.9,286047001.3,N
1540918475.8,286047003.7,N
1540918495.6,286047003.6,N
1540918515.4,286047003.6,N
1540918535.3,286047003.2,N
1540918555.1,286047003.9,N
1540918575.9,286047004.1,N
1540918595.7,286047004.1,N
1540918615.5,286047003.2,N
1540918635.4,286047003.4,N
1540918655.2,286047005.9,Y
1540918675.0,286047004.4,P
1540918676.0,286047004.4,P
1540918695.8,286047001.5,N
1540918715.6,286047001.5,N
1540918735.5,286047001.5,N
1540918755.3,286047003.9,N
1540918775.1,286047003.4,N
1540918795.9,286047003.0,N
